Precipitable_Water
1.10 1.19 1.28 1.30 0.88 0.75 0.50 0.43 0.48 0.45 0.45 0.56 0.70 0.65 0.70 0.77 0.71 0.60 1.05 1.00 0.99 0.98 1.00 1.02 1.01 1.01 0.96 0.89 0.88 0.89 0.90 0.89 0.90 0.89 0.89 0.95 1.01 1.02 1.01 0.98 0.97 0.98 0.98 0.97 0.95 0.93 0.92 0.93 0.93
1.14 1.26 1.32 1.31 0.83 0.55 0.47 0.55 0.49 0.54 0.54 0.72 0.72 0.67 0.57 0.58 0.84 0.87 0.80 0.96 1.04 0.95 0.93 1.03 1.08 1.03 0.93 0.88 0.89 0.87 0.83 0.81 0.79 0.78 0.77 0.85 0.92 0.94 0.95 0.97 0.99 0.98 0.96 0.92 0.89 0.87 0.84 0.85 0.88
1.24 1.27 1.09 1.11 0.82 0.62 0.50 0.60 0.57 0.55 0.58 0.63 0.64 0.74 0.65 0.58 0.75 0.76 0.93 0.99 1.05 1.00 1.06 1.12 1.08 1.01 0.92 0.89 0.85 0.84 0.79 0.73 0.68 0.66 0.69 0.76 0.85 0.86 0.85 0.86 0.86 0.85 0.82 0.77 0.74 0.75 0.80 0.80 0.83
1.18 1.24 1.11 0.84 0.68 0.72 0.60 0.59 0.57 0.50 0.63 0.72 0.67 0.51 0.75 0.94 0.84 0.86 0.99 1.00 0.99 1.07 1.08 1.08 1.02 0.92 0.88 0.85 0.80 0.76 0.69 0.59 0.57 0.58 0.59 0.64 0.71 0.74 0.74 0.72 0.70 0.65 0.57 0.51 0.50 0.52 0.59 0.66 0.75
1.17 1.23 0.87 0.79 0.72 0.72 0.74 0.66 0.52 0.50 0.55 0.68 0.69 0.61 0.67 0.93 0.99 0.98 0.97 1.01 0.98 1.00 1.02 1.01 0.93 0.87 0.80 0.74 0.70 0.65 0.58 0.57 0.58 0.59 0.59 0.60 0.63 0.64 0.64 0.60 0.56 0.53 0.50 0.45 0.43 0.46 0.52 0.59 0.64
0.86 1.04 0.79 0.79 0.79 0.84 0.82 0.68 0.67 0.60 0.63 0.67 0.66 0.66 0.72 0.93 0.88 1.02 1.05 1.01 1.00 0.92 0.98 0.92 0.89 0.80 0.70 0.65 0.61 0.56 0.56 0.58 0.58 0.57 0.56 0.58 0.60 0.61 0.57 0.54 0.50 0.46 0.44 0.43 0.44 0.50 0.57 0.63 0.65
0.80 0.78 0.77 0.83 0.84 0.82 0.80 0.85 0.76 0.69 0.71 0.66 0.76 0.58 0.73 0.86 0.95 1.08 1.10 1.06 0.99 0.93 0.83 0.83 0.78 0.66 0.59 0.58 0.55 0.52 0.53 0.55 0.56 0.54 0.56 0.57 0.55 0.52 0.50 0.48 0.45 0.46 0.50 0.52 0.53 0.55 0.60 0.65 0.70
0.81 0.72 0.73 0.88 0.86 0.77 0.81 0.82 0.79 0.76 0.77 0.90 0.87 0.68 0.72 0.89 0.98 1.07 1.10 1.09 1.03 0.94 0.74 0.68 0.60 0.55 0.51 0.52 0.51 0.50 0.54 0.59 0.60 0.62 0.60 0.51 0.42 0.40 0.41 0.41 0.42 0.49 0.55 0.60 0.61 0.59 0.62 0.67 0.74
0.78 0.58 0.63 0.72 0.81 0.79 0.83 0.73 0.78 0.90 0.82 0.83 0.90 0.86 0.89 1.02 1.00 0.97 0.98 0.98 1.02 1.00 0.76 0.57 0.46 0.49 0.49 0.47 0.50 0.51 0.61 0.66 0.71 0.73 0.66 0.43 0.31 0.34 0.39 0.46 0.52 0.55 0.58 0.62 0.64 0.66 0.66 0.70 0.71
0.61 0.58 0.65 0.84 0.92 0.86 0.84 0.76 0.75 0.80 0.79 0.76 0.90 0.98 1.00 0.98 0.90 0.82 0.84 0.82 0.83 0.89 0.78 0.66 0.54 0.52 0.46 0.45 0.56 0.59 0.63 0.68 0.71 0.70 0.56 0.37 0.36 0.41 0.48 0.54 0.56 0.58 0.59 0.59 0.58 0.62 0.65 0.65 0.66
0.57 0.60 0.74 0.85 0.85 0.81 0.73 0.73 0.84 0.78 0.73 0.81 0.84 0.94 0.95 0.85 0.81 0.78 0.79 0.76 0.76 0.82 0.82 0.71 0.61 0.57 0.48 0.55 0.63 0.66 0.66 0.66 0.65 0.59 0.50 0.46 0.45 0.48 0.51 0.56 0.59 0.59 0.60 0.58 0.58 0.61 0.64 0.64 0.61
0.51 0.73 0.79 0.81 0.84 0.72 0.59 0.73 0.80 0.83 0.81 0.91 0.99 0.98 0.94 0.88 0.79 0.75 0.72 0.70 0.73 0.73 0.73 0.74 0.66 0.62 0.59 0.63 0.66 0.65 0.64 0.59 0.59 0.53 0.50 0.51 0.52 0.54 0.56 0.56 0.58 0.57 0.58 0.57 0.59 0.63 0.65 0.64 0.60
0.59 0.72 0.68 0.83 0.87 0.77 0.62 0.63 0.75 0.80 0.88 1.01 1.12 1.01 0.94 0.91 0.88 0.87 0.77 0.72 0.71 0.66 0.69 0.66 0.65 0.66 0.63 0.66 0.70 0.69 0.62 0.53 0.52 0.52 0.51 0.48 0.49 0.51 0.57 0.57 0.58 0.57 0.56 0.56 0.59 0.64 0.68 0.64 0.62
0.66 0.70 0.74 0.84 0.90 0.83 0.66 0.68 0.76 0.90 0.97 1.02 1.01 1.02 0.98 0.91 0.92 0.91 0.79 0.70 0.69 0.66 0.68 0.65 0.66 0.70 0.71 0.69 0.68 0.68 0.64 0.58 0.51 0.53 0.50 0.49 0.52 0.55 0.56 0.56 0.56 0.55 0.59 0.61 0.64 0.68 0.65 0.64 0.64
0.69 0.55 0.67 0.74 0.75 0.75 0.80 0.59 0.72 0.93 0.96 0.91 0.94 0.92 0.98 0.93 0.95 0.87 0.81 0.72 0.71 0.70 0.72 0.70 0.68 0.74 0.77 0.69 0.66 0.66 0.65 0.59 0.51 0.52 0.52 0.53 0.56 0.55 0.55 0.56 0.56 0.59 0.62 0.63 0.66 0.71 0.67 0.61 0.60
0.58 0.66 0.54 0.72 0.79 0.80 0.76 0.55 0.77 0.92 0.86 0.85 0.94 1.00 1.00 0.93 0.92 0.89 0.83 0.78 0.78 0.79 0.77 0.76 0.72 0.76 0.76 0.75 0.64 0.64 0.62 0.57 0.54 0.53 0.54 0.54 0.55 0.56 0.56 0.55 0.56 0.62 0.64 0.70 0.73 0.68 0.62 0.61 0.58
0.52 0.48 0.54 0.61 0.79 0.76 0.71 0.61 0.80 0.89 0.79 0.80 1.02 1.16 1.25 1.08 0.93 0.94 0.89 0.91 0.92 0.87 0.78 0.74 0.70 0.71 0.69 0.69 0.64 0.63 0.60 0.60 0.54 0.53 0.54 0.54 0.55 0.57 0.57 0.56 0.62 0.65 0.69 0.72 0.69 0.68 0.67 0.59 0.56
0.45 0.51 0.60 0.63 0.65 0.69 0.62 0.58 0.69 0.80 0.75 0.84 0.94 1.05 1.06 1.26 1.09 1.01 0.97 0.93 0.93 0.85 0.74 0.70 0.66 0.66 0.61 0.64 0.64 0.63 0.59 0.59 0.56 0.50 0.52 0.52 0.55 0.59 0.57 0.60 0.63 0.72 0.75 0.68 0.68 0.67 0.66 0.60 0.56
0.50 0.52 0.56 0.64 0.63 0.66 0.59 0.54 0.58 0.69 0.68 0.68 0.79 0.87 0.90 0.99 1.26 1.23 0.99 0.92 0.84 0.88 0.83 0.76 0.69 0.67 0.61 0.61 0.56 0.58 0.54 0.56 0.55 0.52 0.50 0.53 0.57 0.58 0.57 0.60 0.68 0.78 0.72 0.68 0.69 0.66 0.62 0.54 0.47
0.48 0.46 0.48 0.54 0.50 0.55 0.49 0.42 0.51 0.58 0.59 0.70 0.74 0.82 0.92 1.00 1.23 1.21 0.97 0.90 0.91 0.95 0.94 0.84 0.78 0.72 0.65 0.65 0.61 0.60 0.57 0.58 0.56 0.55 0.54 0.56 0.55 0.59 0.64 0.69 0.79 0.77 0.71 0.71 0.67 0.62 0.58 0.53 0.42
0.41 0.39 0.41 0.39 0.45 0.46 0.42 0.37 0.45 0.60 0.70 0.80 0.82 0.87 0.89 0.98 1.15 1.18 1.04 0.91 0.93 0.95 0.94 0.88 0.83 0.73 0.65 0.65 0.66 0.64 0.64 0.65 0.59 0.59 0.58 0.59 0.60 0.65 0.68 0.75 0.79 0.77 0.74 0.68 0.65 0.61 0.56 0.45 0.34
0.34 0.41 0.43 0.43 0.42 0.32 0.40 0.27 0.33 0.53 0.59 0.64 0.69 0.75 0.75 0.90 1.13 1.23 1.16 0.99 0.98 0.98 1.00 0.95 0.87 0.75 0.67 0.67 0.67 0.62 0.60 0.59 0.62 0.63 0.63 0.63 0.64 0.69 0.75 0.79 0.80 0.78 0.72 0.66 0.64 0.60 0.52 0.42 0.24
0.37 0.44 0.44 0.42 0.36 0.30 0.24 0.26 0.31 0.53 0.52 0.51 0.54 0.64 0.76 0.90 0.98 0.91 1.07 0.98 1.04 1.03 1.02 0.97 0.88 0.78 0.68 0.73 0.74 0.70 0.70 0.70 0.72 0.73 0.69 0.70 0.74 0.81 0.84 0.85 0.82 0.76 0.71 0.66 0.63 0.59 0.49 0.37 0.20
0.47 0.43 0.40 0.38 0.32 0.18 0.21 0.29 0.27 0.42 0.46 0.48 0.55 0.60 0.67 0.79 0.84 0.81 1.06 1.09 1.03 1.05 1.07 0.98 0.86 0.78 0.73 0.80 0.78 0.76 0.76 0.79 0.83 0.83 0.78 0.79 0.81 0.87 0.89 0.88 0.83 0.76 0.69 0.64 0.61 0.57 0.47 0.32 0.19
0.42 0.36 0.26 0.22 0.17 0.15 0.26 0.29 0.39 0.45 0.52 0.53 0.50 0.55 0.61 0.73 0.82 0.91 0.90 0.96 1.00 1.00 1.04 1.04 0.89 0.78 0.76 0.81 0.79 0.84 0.84 0.87 0.90 0.88 0.84 0.82 0.84 0.87 0.89 0.88 0.81 0.75 0.67 0.62 0.59 0.53 0.45 0.27 0.19
0.38 0.37 0.27 0.14 0.15 0.17 0.29 0.28 0.33 0.46 0.51 0.50 0.54 0.53 0.57 0.60 0.72 0.84 0.93 0.97 1.00 1.00 1.07 1.10 0.94 0.82 0.80 0.81 0.82 0.88 0.88 0.91 0.93 0.93 0.93 0.89 0.88 0.92 0.90 0.88 0.84 0.75 0.69 0.61 0.56 0.52 0.39 0.24 0.20
0.32 0.31 0.38 0.28 0.30 0.24 0.25 0.31 0.38 0.38 0.43 0.46 0.46 0.46 0.47 0.44 0.51 0.72 0.92 1.02 1.05 1.03 1.08 1.08 1.00 0.87 0.84 0.78 0.86 0.91 0.91 0.96 0.97 0.97 0.97 0.95 0.99 0.96 0.90 0.88 0.83 0.76 0.68 0.61 0.55 0.48 0.32 0.21 0.21
0.39 0.40 0.27 0.30 0.21 0.18 0.22 0.23 0.20 0.32 0.37 0.44 0.45 0.45 0.48 0.50 0.53 0.63 0.83 0.94 1.03 1.13 1.14 1.10 1.06 0.90 0.85 0.87 0.91 0.95 0.91 1.00 0.99 0.97 0.97 0.96 1.02 0.95 0.91 0.87 0.81 0.73 0.67 0.61 0.51 0.41 0.29 0.20 0.21
0.38 0.33 0.30 0.29 0.29 0.22 0.19 0.22 0.34 0.35 0.39 0.41 0.46 0.48 0.46 0.47 0.50 0.57 0.74 0.91 0.99 1.08 1.09 1.07 1.02 0.94 0.89 0.91 0.94 0.99 0.95 0.98 1.00 0.99 0.98 0.97 0.99 0.96 0.89 0.84 0.77 0.71 0.66 0.59 0.46 0.35 0.24 0.20 0.21
0.38 0.33 0.30 0.22 0.19 0.26 0.28 0.28 0.36 0.40 0.40 0.43 0.47 0.49 0.50 0.51 0.53 0.64 0.73 0.86 0.94 0.97 1.04 1.02 1.02 0.96 0.95 0.92 0.96 1.00 1.04 0.99 0.97 0.98 0.97 0.98 0.97 0.94 0.87 0.80 0.73 0.68 0.64 0.56 0.40 0.32 0.23 0.20 0.22
Wind_Speed
3 3 4 6 5 6 4 6 6 7 6 7 8 8 7 6 3 3 6 6 5 4 4 5 5 5 5 5 6 6 6 7 7 7 7 8 8 9 9 9 10 10 10 10 10 10 10 11 11
4 5 4 5 6 6 4 10 10 9 7 7 10 8 7 5 4 5 5 5 5 4 5 5 5 5 4 5 5 6 6 7 7 7 8 8 8 9 10 10 11 11 11 11 11 11 11 11 11
5 4 5 3 3 2 5 7 6 5 4 2 3 7 5 5 5 3 5 6 6 5 5 5 4 4 4 5 5 6 6 7 8 8 8 9 9 9 10 10 10 10 10 10 10 11 11 11 11
5 8 5 4 2 7 5 5 4 3 4 5 5 5 6 4 3 5 7 6 5 5 5 5 4 4 4 4 5 5 6 7 8 8 9 9 9 10 10 10 10 10 10 10 11 11 10 11 11
4 6 9 4 3 5 6 4 3 2 2 4 4 3 4 4 6 7 5 5 4 4 4 4 4 4 4 4 4 5 5 6 7 8 9 9 9 9 9 10 10 11 11 11 11 11 11 12 12
3 5 5 5 7 3 4 2 2 3 4 5 5 4 3 4 5 5 4 4 4 4 4 4 3 3 3 4 4 4 5 5 6 7 8 9 10 10 10 10 10 10 11 11 12 11 12 12 13
5 6 4 6 7 8 1 0 1 1 1 0 3 2 2 3 4 5 5 4 4 3 3 3 3 3 4 4 4 4 5 5 6 7 8 8 8 8 8 9 9 10 10 11 12 12 12 13 14
6 4 5 4 2 3 2 1 2 3 2 3 1 3 3 5 6 5 4 3 3 2 3 3 4 4 4 4 4 5 5 6 6 7 7 6 7 7 8 8 9 9 10 11 11 11 12 13 14
6 4 5 5 4 3 2 3 4 2 2 5 5 4 5 7 7 6 4 3 3 3 2 3 4 4 4 4 4 5 5 5 5 5 4 5 6 7 8 8 8 9 10 11 11 12 13 13 14
4 3 4 6 4 7 10 4 5 5 5 4 3 1 5 7 7 7 6 5 4 4 3 3 4 4 4 4 5 4 4 3 3 3 3 4 5 5 5 5 6 7 9 10 11 12 13 15 16
7 8 5 7 8 9 10 9 7 7 9 6 5 4 6 6 8 8 8 7 6 5 4 3 4 5 4 5 5 4 4 3 3 3 3 3 2 2 3 4 5 7 8 10 11 12 14 16 15
8 5 6 7 7 10 10 8 8 9 10 9 9 8 7 8 9 9 9 9 8 7 5 5 4 5 4 5 5 5 4 5 4 3 3 2 1 1 2 4 5 7 9 10 11 13 14 15 14
10 8 7 7 10 5 9 9 10 9 4 5 8 9 9 9 10 9 9 10 9 8 7 6 5 5 5 5 5 5 5 4 4 3 3 3 2 1 2 4 6 8 9 10 12 14 15 14 13
9 7 6 9 10 8 8 10 8 6 3 3 6 9 10 10 11 10 10 10 9 9 8 7 6 6 5 5 6 5 6 5 5 3 3 3 3 3 4 5 7 8 10 11 13 15 13 12 13
11 9 6 8 10 12 12 14 5 7 6 7 9 10 11 12 12 12 12 10 10 9 8 7 7 6 5 5 6 6 6 5 5 4 4 4 3 3 4 6 8 9 11 12 14 14 12 12 13
9 7 8 11 12 12 9 10 10 9 7 11 12 13 14 14 13 12 12 11 10 9 9 8 8 6 6 6 7 7 7 6 5 5 5 5 4 5 6 7 9 10 12 14 14 12 11 11 12
7 7 9 12 12 9 6 10 11 10 9 12 10 10 16 15 13 13 12 11 10 10 9 8 8 7 7 8 8 7 7 7 6 6 5 5 6 6 7 8 10 10 12 13 11 10 10 11 13
9 7 9 9 6 10 11 13 9 14 11 6 10 13 19 7 10 13 12 11 11 10 9 8 7 7 7 8 9 8 8 7 7 7 7 7 7 7 8 9 9 10 12 11 11 10 10 12 14
9 11 11 10 12 8 14 15 11 11 11 12 15 12 10 15 15 15 11 11 11 10 9 8 7 6 7 7 9 9 8 8 8 8 8 8 8 8 9 9 10 11 11 10 10 10 11 13 15
13 12 11 13 12 12 12 12 8 12 14 13 11 12 13 11 11 14 13 12 12 11 10 10 8 7 7 7 8 9 9 8 8 8 8 8 8 9 9 9 10 10 10 11 11 11 11 13 14
12 11 11 11 12 12 11 11 10 12 11 11 12 10 10 10 12 15 16 12 12 12 11 11 9 9 9 8 8 8 8 7 8 8 8 8 8 9 9 9 10 9 10 11 10 11 12 13 15
11 12 10 12 10 10 9 11 13 10 10 13 11 10 9 7 9 13 13 15 14 14 12 11 11 10 10 9 9 9 8 7 7 7 7 8 8 9 9 10 10 10 10 10 11 11 13 14 16
12 11 10 9 11 11 13 8 8 2 10 13 13 12 9 7 8 14 16 16 14 12 13 13 13 12 12 11 10 9 8 7 7 7 7 8 8 9 9 10 10 10 10 10 11 12 14 15 16
10 10 9 10 9 10 10 5 7 8 14 9 9 10 10 9 12 12 12 14 13 14 13 13 14 14 14 13 12 11 10 9 8 8 8 8 9 10 10 9 9 9 10 11 11 13 14 15 17
12 7 8 9 9 10 11 12 8 10 12 10 9 10 9 12 13 13 14 14 13 13 14 15 16 15 15 14 14 12 11 11 11 9 9 10 11 12 11 10 9 10 11 11 12 13 15 16 17
14 11 9 9 9 10 9 7 8 11 8 4 6 7 9 10 13 17 18 17 14 14 15 14 17 17 17 16 15 14 13 12 12 13 12 13 13 13 11 10 10 10 12 12 13 14 16 17 18
16 16 14 13 13 10 10 12 11 7 5 6 6 6 8 10 11 15 18 18 16 15 15 14 17 17 18 17 16 16 14 14 15 15 16 16 15 14 12 11 11 12 13 14 14 16 17 17 18
17 13 12 12 11 13 12 12 10 7 8 9 9 9 9 12 14 12 16 17 17 16 15 14 16 18 18 19 18 17 17 16 16 17 17 16 15 14 13 13 13 13 14 15 15 17 18 18 19
15 13 12 13 13 13 12 13 11 5 9 12 13 12 13 15 15 14 11 15 16 16 16 16 16 17 18 20 19 18 19 19 18 18 17 16 15 15 14 14 14 14 15 16 17 17 18 18 19
19 18 17 14 18 17 14 18 15 17 17 17 16 16 15 14 14 13 11 13 15 15 17 18 18 19 20 21 21 21 20 20 19 18 17 16 16 15 15 15 15 15 16 17 17 17 18 18 20
Wind_Direction
62 50 24 51 80 61 73 82 89 90 56 57 60 72 83 36 32 109 122 120 123 121 118 116 111 103 98 88 83 79 74 71 69 67 67 68 70 71 72 71 69 67 65 60 54 51 47 44 40
68 28 21 38 56 68 55 86 80 82 87 78 78 75 48 48 68 113 115 128 126 126 130 127 116 110 98 93 86 81 76 71 68 68 70 74 76 78 78 75 72 68 63 57 52 48 45 42 36
49 25 31 46 34 61 82 99 89 82 100 76 55 48 50 82 93 106 116 125 119 117 132 132 119 113 106 98 94 87 81 75 70 72 76 80 82 83 82 78 72 65 59 54 50 47 43 39 34
49 43 14 106 332 292 123 101 93 80 57 49 84 40 62 108 64 122 125 124 120 117 129 134 121 118 114 106 102 95 87 80 75 76 78 82 85 85 82 77 70 62 57 54 50 46 42 36 31
54 36 39 23 20 88 87 98 106 98 81 74 67 76 51 82 110 122 123 130 129 129 131 139 128 124 120 116 112 106 97 88 82 81 82 84 86 84 81 75 70 67 61 55 49 45 42 36 29
354 356 353 348 297 307 69 102 135 93 90 81 74 83 29 122 132 134 125 124 131 135 141 141 136 133 130 125 122 115 108 99 91 87 88 88 86 84 80 76 70 65 59 52 46 42 38 32 23
283 306 338 326 259 308 143 243 225 178 93 103 138 14 148 168 159 140 132 124 122 132 151 158 152 144 136 132 129 124 115 106 101 97 94 90 84 80 78 74 68 62 54 46 42 38 31 23 15
268 316 339 24 299 294 183 336 347 263 308 144 188 300 235 195 177 164 152 144 138 137 146 153 157 151 144 138 134 130 123 116 111 105 95 87 83 81 78 73 66 57 46 36 28 24 18 12 9
283 302 295 289 246 279 240 297 324 286 293 303 290 268 202 183 183 187 187 169 168 162 158 163 168 166 160 154 148 143 135 124 124 117 98 86 89 87 81 71 59 46 36 27 24 20 14 8 2
288 275 273 299 245 270 276 267 276 281 271 290 324 105 176 190 198 202 202 206 205 188 183 179 181 182 176 174 165 162 164 157 152 138 115 107 99 90 73 55 37 27 20 17 14 11 7 3 359
273 256 269 269 263 277 279 274 265 276 270 222 196 210 200 205 212 210 213 214 209 198 198 198 189 179 184 182 186 191 189 179 164 157 147 128 119 84 41 18 9 6 1 2 1 360 358 356 357
277 266 253 266 277 307 295 292 260 271 289 237 223 221 225 227 221 217 217 213 207 209 212 206 198 197 199 195 199 202 203 197 192 192 188 189 199 279 336 351 358 357 357 355 353 349 348 350 353
261 273 277 296 298 310 311 288 272 283 280 230 234 226 232 235 227 222 215 211 211 209 208 214 208 205 206 212 215 206 201 194 200 213 217 219 225 277 341 348 348 345 345 347 346 346 345 348 348
278 266 302 294 272 278 309 305 267 276 198 242 217 240 240 236 230 221 208 208 212 210 212 214 213 209 224 218 208 205 201 207 210 215 223 223 243 278 305 321 331 337 337 337 341 343 347 350 357
278 265 283 297 295 284 284 291 247 233 242 244 261 244 239 239 237 218 209 209 210 212 212 217 217 213 224 212 212 209 209 212 217 223 224 232 260 279 303 316 324 329 333 335 333 336 341 345 350
274 273 277 290 289 284 294 276 257 233 247 260 259 248 242 239 226 213 208 207 209 210 211 218 213 225 224 223 220 216 214 213 220 226 234 244 269 282 297 309 319 323 328 329 331 335 337 343 346
271 264 289 295 272 279 252 282 248 254 256 272 263 271 274 215 209 210 204 204 207 209 210 217 221 228 234 226 221 216 218 224 226 231 243 254 273 283 296 307 319 322 328 333 334 336 341 342 342
239 268 295 298 304 249 283 276 264 251 268 267 276 290 319 230 217 206 204 205 208 207 207 214 222 231 232 225 222 223 223 228 231 239 248 258 273 285 293 306 314 320 325 330 332 332 337 339 338
237 265 255 271 280 280 270 286 274 256 259 269 276 294 278 279 240 218 206 203 200 205 208 214 221 231 227 232 224 224 227 234 244 245 250 260 271 285 294 300 309 316 321 325 331 327 330 337 337
263 263 258 271 284 262 277 280 269 255 262 271 285 275 279 309 234 221 202 200 206 211 216 219 227 235 233 234 228 228 230 240 245 247 254 262 271 283 294 296 311 313 319 321 324 327 327 332 339
259 268 279 277 292 293 302 284 279 271 274 276 284 295 292 282 231 211 204 207 209 214 220 228 232 238 236 232 230 229 230 239 241 248 259 263 274 286 290 296 305 310 315 317 321 322 326 329 332
252 267 276 283 291 288 295 290 293 258 261 272 281 284 284 261 214 209 223 234 227 226 228 232 236 237 236 229 228 224 226 230 238 248 261 267 275 285 291 294 301 305 309 312 316 322 325 327 330
254 264 275 285 294 303 297 298 308 242 269 277 278 279 277 269 228 247 246 229 229 231 234 237 238 236 229 228 229 221 225 233 236 254 259 274 280 290 293 295 299 303 307 311 313 317 322 325 327
263 263 279 287 290 295 279 269 288 271 301 273 282 280 272 252 246 250 239 228 239 242 240 237 234 232 229 229 226 224 226 231 242 257 262 274 281 289 293 293 299 303 306 308 312 317 322 324 326
249 253 275 285 285 263 275 282 272 275 289 264 269 281 280 275 263 254 251 240 239 240 239 239 231 230 226 227 225 227 235 245 247 253 266 274 279 283 283 285 295 302 305 306 310 315 319 322 324
244 238 242 260 266 274 293 288 289 285 274 279 290 303 294 300 273 260 258 248 247 245 245 244 229 225 224 225 228 235 249 246 250 260 268 275 276 275 273 279 292 301 304 307 308 313 317 319 321
246 248 247 252 271 275 275 285 300 304 264 260 279 307 309 314 307 269 256 250 249 247 244 243 224 222 227 229 232 240 243 253 256 262 274 273 267 265 265 271 287 298 305 306 305 310 315 316 320
231 246 248 263 251 262 272 281 269 277 261 264 272 283 292 302 304 290 256 247 244 244 242 238 227 227 229 233 237 244 249 257 259 269 275 267 259 257 260 270 283 293 302 308 307 310 314 315 318
231 236 244 252 251 256 264 265 241 268 279 274 272 278 288 296 300 297 260 243 241 241 237 238 233 231 233 236 241 248 252 256 266 271 270 261 257 253 261 269 279 288 299 305 308 310 313 315 317
237 241 243 247 259 256 258 262 260 273 280 276 265 275 285 292 297 298 269 249 241 245 241 244 241 239 239 240 244 249 253 255 262 266 261 257 253 253 262 269 279 286 296 303 306 309 311 313 316